User: anonymous   Login
Location: Unspecified
(0.0000°N, 0.0000°E)
Time: 15:24:17
(UTC+00:00)
Language:

ADEOS - Orbit

View from above orbital plane
View from above orbital plane
View from above satellite
View from above satellite

Ground track
Ground track

The orbit data is extracted from the following two-line orbital elements,

1 24277U 96046A   17228.49569365 -.00000009  00000-0  14060-4 0  9999
2 24277  98.7256 178.4898 0001948 118.4416 241.6962 14.29388709 94838
Epoch (UTC): 16 August 2017 11:53:47
Eccentricity: 0.0001948
inclination: 98.7256°
perigee height: 792 km
apogee height: 795 km
right ascension of ascending node: 178.4898°
argument of perigee: 118.4416°
revolutions per day: 14.29388709
mean anomaly at epoch: 241.6962°
orbit number at epoch: 9483

The dashed part of the orbit path shows where the satellite is in the earth's shadow,  

DLR